Regional Weather Roundup
Issued by NWS

Home | Current Version | Previous Version | Graphics & Text | Print | Product List | Glossary On
Versions: 1 2 3 4 5 6 7 8 9 10 11 12 13 14 15 16 17 18 19 20 21 22 23 24 25 26 27 28 29 30 31 32 33 34 35 36 37 38 39 40 41 42 43 44 45 46 47 48 49 50
663
ASUS43 KFSD 262310
RWRSD

WEATHER ROUNDUP FOR SOUTH DAKOTA
NATIONAL WEATHER SERVICE SIOUX FALLS SD
600 PM CDT MON SEP 26 2016

NOTE: "FAIR" INDICATES FEW OR NO CLOUDS BELOW 12,000 FEET WITH NO
SIGNIFICANT WEATHER AND/OR OBSTRUCTIONS TO VISIBILITY.


SDZ001>005-009-010-012>017-270000-
NORTHWEST AND NORTH CENTRAL SOUTH DAKOTA

CITY           SKY/WX    TMP DP  RH WIND       PRES   REMARKS
BUFFALO          N/A     69  41  36 NW22      30.12F
FAITH            N/A     69  40  34 NW18      30.15S
MOBRIDGE       SUNNY     71  32  23 NW16G23   30.07F
$$

SDZ012>016-024>037-041>051-057-063-072>074-270000-
SOUTHWEST AND SOUTH CENTRAL SOUTH DAKOTA

CITY           SKY/WX    TMP DP  RH WIND       PRES   REMARKS
RAPID CTY ARPT SUNNY     71  39  31 N20       30.20F
PIERRE         SUNNY     73  38  27 NW15      30.08F
CUSTER         SUNNY     64  38  38 NW9G17    30.30S
ELLSWORTH AFB  SUNNY     71  39  31 N20G25    30.20F
PHILIP         SUNNY     75  39  27 NW18G26   30.12F
PINE RIDGE     SUNNY     75  40  28 NE10      30.19F
WINNER         FAIR      75  39  27 NW16      30.12F
$$

SDZ004>011-016>023-039-040-270000-
NORTHEAST SOUTH DAKOTA

CITY           SKY/WX    TMP DP  RH WIND       PRES   REMARKS
ABERDEEN       SUNNY     69  29  22 NW26G32   30.04F
WATERTOWN      SUNNY     65  34  31 NW16G24   30.02F
BROOKINGS      SUNNY     66  30  26 NW18      30.02S
SISSETON         N/A     68  27  21 NW23G35   29.96F
$$

SDZ017-020-022-023-036>040-048>070-270000-
SOUTHEAST SOUTH DAKOTA

CITY           SKY/WX    TMP DP  RH WIND       PRES   REMARKS
SIOUX FALLS    SUNNY     70  35  27 NW18G24   30.04S
HURON          SUNNY     71  31  22 N17G24    30.05S
CHAMBERLAIN    SUNNY     73  40  30 NW15G23   30.10F
MITCHELL       SUNNY     73  32  22 NW16G23   30.07F
YANKTON        SUNNY     72  37  28 NW15G22   30.06F
$$

ABBREVIATIONS USED IN REMARKS
   TC - TEMPERATURE IN CELSIUS
  WCI - WIND CHILL INDEX
   HX - HEAT INDEX
  VSB - VISIBILITY





USA.gov is the U.S. government's official web portal to all federal, state and local government web resources and services.